Погода в Мукачеве

Украина / Закарпатская область     48°26′31″N   22°43′05″E
темп.,
°C
ветер,
м/с
пор.,
м/с
влажн.,
%
обл.,
%
осадки,
мм/ч
давл.,
гПа
погр.,
м
24 февраля, ср
ср2423:00+2св228967 0.0 103623
02:00+2св128533 0.0 103722
05:00+2всв12790 0.0 103722
08:00+2св117521 0.0 103622
11:00+6ююв1168100 0.0 1036179
14:00+9юз116553 0.0 1035355
17:00+8юз117626 0.0 103522
20:00+4всв118514 0.0 103622
25 февраля, чт
чт2523:00+4всв12870 0.0 103622
02:00+3всв11878 0.0 103622
05:00+3всв11880 0.0 103522
08:00+3в11880 0.0 103522
11:00+9ююв11716 0.0 1034279
14:00+11ю12656 0.0 1033421
17:00+10ю12740 0.0 103224
20:00+6всв12840 0.0 103222
26 февраля, пт
пт2623:00+6всв12840 0.0 103222
02:00+5всв12840 0.0 103222
05:00+4всв11850 0.0 103022
08:00+4всв11860 0.0 103022
11:00+10ююз11710 0.0 1029267
14:00+12юз11670 0.0 1027508
17:00+11юз11750 0.0 102526
20:00+7св11870 0.0 102522
27 февраля, сб
сб2723:00+6св12890 0.0 102522
02:00+5св128948 0.0 102522
05:00+6ссз3791100 0.3 1024315
08:00+4с3583100 0.7 1025172
11:00+6с476275 0.0 10261203
14:00+6ссз476783 0.0 10271171
17:00+5с476641 0.0 10261160
20:00+4ссз287670 0.0 10291055
28 февраля, вс
вс2823:00+1ссз238922 0.0 103058
02:000ссз239220 0.0 103279
05:000с338638 0.0 103267
08:000ссв237925 0.0 103382
11:00+5ссз23570 0.0 1033734
14:00+7ссз24450 0.0 10331155
17:00+6ссз24570 0.0 1032193
20:00+2ссв23730 0.0 103337